Time,TemperatureF,DewpointF,PressureIn,WindDirection,WindDirectionDegrees,WindSpeedMPH,WindSpeedGustMPH,Humidity,HourlyPrecipIn,Conditions,Clouds,dailyrainin,SoftwareType,DateUTC
2013-11-06 00:00:00,44.8,41.2,30.52,NW,323,0.0,0.0,87,0.00,,---,0.00,VWS V14.01,2013-11-06 05:00:00,
2013-11-06 00:01:00,44.6,39.8,30.53,WNW,293,0.0,0.0,83,0.00,,---,0.00,VWS V14.01,2013-11-06 05:01:00,
2013-11-06 00:05:00,44.7,41.1,30.52,NW,323,0.0,0.0,87,0.00,,---,0.00,VWS V14.01,2013-11-06 05:05:00,
2013-11-06 00:06:00,44.6,39.5,30.53,WNW,293,0.0,0.0,82,0.00,,---,0.00,VWS V14.01,2013-11-06 05:06:00,
2013-11-06 00:10:00,44.7,40.8,30.53,NW,323,0.0,3.0,86,0.00,,---,0.00,VWS V14.01,2013-11-06 05:10:00,
2013-11-06 00:11:00,45.0,39.2,30.54,SW,214,5.0,5.0,80,0.00,,---,0.00,VWS V14.01,2013-11-06 05:11:00,
2013-11-06 00:15:00,44.9,40.7,30.53,NW,323,0.0,0.0,85,0.00,,---,0.00,VWS V14.01,2013-11-06 05:15:00,
2013-11-06 00:16:00,45.6,39.2,30.54,SW,226,0.0,0.0,78,0.00,,---,0.00,VWS V14.01,2013-11-06 05:16:00,
2013-11-06 00:20:00,45.1,40.9,30.53,NW,323,0.0,0.0,85,0.00,,---,0.00,VWS V14.01,2013-11-06 05:20:00,
2013-11-06 00:21:00,45.7,39.2,30.54,SW,226,0.0,0.0,78,0.00,,---,0.00,VWS V14.01,2013-11-06 05:21:00,
2013-11-06 00:25:00,45.1,40.6,30.53,NW,323,0.0,0.0,84,0.00,,---,0.00,VWS V14.01,2013-11-06 05:25:00,
2013-11-06 00:26:00,45.8,39.3,30.53,SW,226,0.0,0.0,78,0.00,,---,0.00,VWS V14.01,2013-11-06 05:26:00,
2013-11-06 00:30:00,45.2,41.0,30.53,NW,323,0.0,0.0,85,0.00,,---,0.00,VWS V14.01,2013-11-06 05:30:00,
2013-11-06 00:31:00,46.0,40.8,30.53,SW,226,0.0,0.0,82,0.00,,---,0.00,VWS V14.01,2013-11-06 05:31:00,
2013-11-06 00:35:00,45.2,41.3,30.52,NW,323,0.0,0.0,86,0.00,,---,0.00,VWS V14.01,2013-11-06 05:35:00,
2013-11-06 00:36:00,45.8,40.9,30.53,SW,226,0.0,0.0,83,0.00,,---,0.00,VWS V14.01,2013-11-06 05:36:00,
2013-11-06 00:40:00,45.2,41.0,30.52,NW,323,0.0,0.0,85,0.00,,---,0.00,VWS V14.01,2013-11-06 05:40:00,
2013-11-06 00:41:00,45.6,41.4,30.53,NW,323,0.0,0.0,85,0.00,,---,0.00,VWS V14.01,2013-11-06 05:41:00,
2013-11-06 00:45:00,45.0,41.1,30.52,NW,323,0.0,0.0,86,0.00,,---,0.00,VWS V14.01,2013-11-06 05:45:00,
2013-11-06 00:46:00,45.2,41.3,30.53,NW,323,0.0,0.0,86,0.00,,---,0.00,VWS V14.01,2013-11-06 05:46:00,
2013-11-06 00:50:00,44.7,40.5,30.51,NW,323,0.0,0.0,85,0.00,,---,0.00,VWS V14.01,2013-11-06 05:50:00,
2013-11-06 00:51:00,45.2,40.7,30.53,NW,323,0.0,0.0,84,0.00,,---,0.00,VWS V14.01,2013-11-06 05:51:00,
2013-11-06 00:55:00,44.6,40.4,30.51,NW,323,0.0,0.0,85,0.00,,---,0.00,VWS V14.01,2013-11-06 05:55:00,
2013-11-06 00:56:00,44.9,41.0,30.53,NW,323,0.0,0.0,86,0.00,,---,0.00,VWS V14.01,2013-11-06 05:56:00,
2013-11-06 01:00:00,44.5,40.0,30.51,NW,323,0.0,0.0,84,0.00,,---,0.00,VWS V14.01,2013-11-06 06:00:00,
2013-11-06 01:01:00,44.8,41.2,30.53,NW,323,0.0,0.0,87,0.00,,---,0.00,VWS V14.01,2013-11-06 06:01:00,
2013-11-06 01:05:00,44.5,40.3,30.51,NW,323,0.0,0.0,85,0.00,,---,0.00,VWS V14.01,2013-11-06 06:05:00,
2013-11-06 01:06:00,44.8,41.2,30.52,NW,323,3.0,3.0,87,0.00,,---,0.00,VWS V14.01,2013-11-06 06:06:00,
2013-11-06 01:10:00,44.6,40.4,30.50,NW,323,0.0,0.0,85,0.00,,---,0.00,VWS V14.01,2013-11-06 06:10:00,
2013-11-06 01:11:00,44.8,40.9,30.53,NW,323,0.0,0.0,86,0.00,,---,0.00,VWS V14.01,2013-11-06 06:11:00,
2013-11-06 01:15:00,44.7,40.5,30.50,NW,323,0.0,0.0,85,0.00,,---,0.00,VWS V14.01,2013-11-06 06:15:00,
2013-11-06 01:16:00,44.9,40.7,30.53,NW,323,0.0,0.0,85,0.00,,---,0.00,VWS V14.01,2013-11-06 06:16:00,
2013-11-06 01:20:00,44.6,39.8,30.49,NW,323,0.0,0.0,83,0.00,,---,0.00,VWS V14.01,2013-11-06 06:20:00,
2013-11-06 01:21:00,45.1,40.9,30.53,NW,323,0.0,0.0,85,0.00,,---,0.00,VWS V14.01,2013-11-06 06:21:00,
2013-11-06 01:25:00,44.6,40.1,30.49,NW,323,0.0,0.0,84,0.00,,---,0.00,VWS V14.01,2013-11-06 06:25:00,
2013-11-06 01:26:00,45.2,40.7,30.53,NW,323,0.0,0.0,84,0.00,,---,0.00,VWS V14.01,2013-11-06 06:26:00,
2013-11-06 01:30:00,44.6,40.1,30.50,NW,323,0.0,0.0,84,0.00,,---,0.00,VWS V14.01,2013-11-06 06:30:00,
2013-11-06 01:31:00,45.2,41.0,30.53,NW,323,0.0,0.0,85,0.00,,---,0.00,VWS V14.01,2013-11-06 06:31:00,
2013-11-06 01:35:00,45.0,40.8,30.49,NW,323,0.0,0.0,85,0.00,,---,0.00,VWS V14.01,2013-11-06 06:35:00,
2013-11-06 01:36:00,45.2,41.3,30.52,NW,323,0.0,0.0,86,0.00,,---,0.00,VWS V14.01,2013-11-06 06:36:00,
2013-11-06 01:40:00,45.1,40.6,30.49,NW,323,0.0,0.0,84,0.00,,---,0.00,VWS V14.01,2013-11-06 06:40:00,
2013-11-06 01:41:00,45.1,40.9,30.52,NW,323,0.0,0.0,85,0.00,,---,0.00,VWS V14.01,2013-11-06 06:41:00,
2013-11-06 01:45:00,45.1,40.6,30.49,NW,323,0.0,0.0,84,0.00,,---,0.00,VWS V14.01,2013-11-06 06:45:00,
2013-11-06 01:46:00,45.0,40.8,30.52,NW,323,0.0,0.0,85,0.00,,---,0.00,VWS V14.01,2013-11-06 06:46:00,
2013-11-06 01:50:00,45.1,40.6,30.49,NW,323,0.0,0.0,84,0.00,,---,0.00,VWS V14.01,2013-11-06 06:50:00,
2013-11-06 01:51:00,44.7,40.5,30.51,NW,323,0.0,0.0,85,0.00,,---,0.00,VWS V14.01,2013-11-06 06:51:00,
2013-11-06 01:55:00,45.0,40.2,30.49,NW,323,0.0,0.0,83,0.00,,---,0.00,VWS V14.01,2013-11-06 06:55:00,
2013-11-06 01:56:00,44.6,40.4,30.51,NW,323,0.0,0.0,85,0.00,,---,0.00,VWS V14.01,2013-11-06 06:56:00,
2013-11-06 02:00:00,45.1,40.6,30.49,NW,323,0.0,0.0,84,0.00,,---,0.00,VWS V14.01,2013-11-06 07:00:00,
2013-11-06 02:01:00,44.5,40.0,30.51,NW,323,0.0,0.0,84,0.00,,---,0.00,VWS V14.01,2013-11-06 07:01:00,
2013-11-06 02:05:00,45.1,40.6,30.49,NW,323,0.0,0.0,84,0.00,,---,0.00,VWS V14.01,2013-11-06 07:05:00,
2013-11-06 02:06:00,44.5,40.3,30.50,NW,323,0.0,0.0,85,0.00,,---,0.00,VWS V14.01,2013-11-06 07:06:00,
2013-11-06 02:10:00,45.2,41.3,30.49,NW,323,0.0,0.0,86,0.00,,---,0.00,VWS V14.01,2013-11-06 07:10:00,
2013-11-06 02:11:00,44.7,40.5,30.50,NW,323,0.0,0.0,85,0.00,,---,0.00,VWS V14.01,2013-11-06 07:11:00,
2013-11-06 02:15:00,45.3,41.7,30.49,NW,323,0.0,0.0,87,0.00,,---,0.00,VWS V14.01,2013-11-06 07:15:00,
2013-11-06 02:16:00,44.7,40.2,30.50,NW,323,0.0,0.0,84,0.00,,---,0.00,VWS V14.01,2013-11-06 07:16:00,
2013-11-06 02:20:00,45.1,41.5,30.49,NW,323,0.0,0.0,87,0.00,,---,0.00,VWS V14.01,2013-11-06 07:20:00,
2013-11-06 02:21:00,44.6,40.1,30.49,NW,323,0.0,0.0,84,0.00,,---,0.00,VWS V14.01,2013-11-06 07:21:00,
2013-11-06 02:25:00,44.8,41.2,30.49,NW,323,0.0,0.0,87,0.00,,---,0.00,VWS V14.01,2013-11-06 07:25:00,
2013-11-06 02:26:00,44.6,40.1,30.50,NW,323,0.0,0.0,84,0.00,,---,0.00,VWS V14.01,2013-11-06 07:26:00,
2013-11-06 02:30:00,44.5,41.2,30.49,NW,323,0.0,0.0,88,0.00,,---,0.00,VWS V14.01,2013-11-06 07:30:00,
2013-11-06 02:31:00,44.6,40.1,30.50,NW,323,0.0,0.0,84,0.00,,---,0.00,VWS V14.01,2013-11-06 07:31:00,
2013-11-06 02:35:00,44.2,41.2,30.49,NW,323,0.0,0.0,89,0.00,,---,0.00,VWS V14.01,2013-11-06 07:35:00,
2013-11-06 02:36:00,45.0,40.8,30.50,NW,323,0.0,0.0,85,0.00,,---,0.00,VWS V14.01,2013-11-06 07:36:00,
2013-11-06 02:40:00,44.0,41.3,30.49,NW,323,0.0,2.0,90,0.00,,---,0.00,VWS V14.01,2013-11-06 07:40:00,
2013-11-06 02:41:00,45.1,40.6,30.49,NW,323,0.0,0.0,84,0.00,,---,0.00,VWS V14.01,2013-11-06 07:41:00,
2013-11-06 02:45:00,43.8,41.1,30.50,NW,323,0.0,0.0,90,0.00,,---,0.00,VWS V14.01,2013-11-06 07:45:00,
2013-11-06 02:46:00,45.1,40.6,30.49,NW,323,0.0,0.0,84,0.00,,---,0.00,VWS V14.01,2013-11-06 07:46:00,
2013-11-06 02:50:00,43.5,40.8,30.49,NW,323,0.0,0.0,90,0.00,,---,0.00,VWS V14.01,2013-11-06 07:50:00,
2013-11-06 02:51:00,45.1,40.6,30.49,NW,323,0.0,0.0,84,0.00,,---,0.00,VWS V14.01,2013-11-06 07:51:00,
2013-11-06 02:55:00,43.2,40.5,30.49,NW,323,0.0,0.0,90,0.00,,---,0.00,VWS V14.01,2013-11-06 07:55:00,
2013-11-06 02:56:00,45.0,40.5,30.49,NW,323,0.0,0.0,84,0.00,,---,0.00,VWS V14.01,2013-11-06 07:56:00,
2013-11-06 03:00:00,43.1,40.7,30.49,NW,323,0.0,0.0,91,0.00,,---,0.00,VWS V14.01,2013-11-06 08:00:00,
2013-11-06 03:01:00,45.1,40.6,30.49,NW,323,0.0,0.0,84,0.00,,---,0.00,VWS V14.01,2013-11-06 08:01:00,
2013-11-06 03:05:00,43.1,40.4,30.49,NW,323,0.0,0.0,90,0.00,,---,0.00,VWS V14.01,2013-11-06 08:05:00,
2013-11-06 03:06:00,45.1,40.6,30.49,NW,323,0.0,0.0,84,0.00,,---,0.00,VWS V14.01,2013-11-06 08:06:00,
2013-11-06 03:10:00,43.1,40.4,30.48,NW,323,0.0,0.0,90,0.00,,---,0.00,VWS V14.01,2013-11-06 08:10:00,
2013-11-06 03:11:00,45.3,41.4,30.49,NW,323,0.0,0.0,86,0.00,,---,0.00,VWS V14.01,2013-11-06 08:11:00,
2013-11-06 03:15:00,43.0,40.3,30.48,NW,323,0.0,0.0,90,0.00,,---,0.00,VWS V14.01,2013-11-06 08:15:00,
2013-11-06 03:16:00,45.3,41.7,30.49,NW,323,0.0,0.0,87,0.00,,---,0.00,VWS V14.01,2013-11-06 08:16:00,
2013-11-06 03:20:00,43.4,41.0,30.48,NW,323,0.0,0.0,91,0.00,,---,0.00,VWS V14.01,2013-11-06 08:20:00,
2013-11-06 03:21:00,45.1,41.5,30.49,NW,323,0.0,0.0,87,0.00,,---,0.00,VWS V14.01,2013-11-06 08:21:00,
2013-11-06 03:25:00,43.7,41.2,30.48,NW,323,0.0,0.0,91,0.00,,---,0.00,VWS V14.01,2013-11-06 08:25:00,
2013-11-06 03:26:00,44.8,41.2,30.49,NW,323,0.0,0.0,87,0.00,,---,0.00,VWS V14.01,2013-11-06 08:26:00,
2013-11-06 03:30:00,44.1,41.7,30.48,NW,323,0.0,0.0,91,0.00,,---,0.00,VWS V14.01,2013-11-06 08:30:00,
2013-11-06 03:31:00,44.5,41.2,30.49,NW,323,0.0,0.0,88,0.00,,---,0.00,VWS V14.01,2013-11-06 08:31:00,
2013-11-06 03:35:00,44.5,41.8,30.47,NW,323,0.0,0.0,90,0.00,,---,0.00,VWS V14.01,2013-11-06 08:35:00,
2013-11-06 03:36:00,44.1,41.1,30.49,NW,323,0.0,0.0,89,0.00,,---,0.00,VWS V14.01,2013-11-06 08:36:00,
2013-11-06 03:40:00,45.1,42.6,30.47,NW,323,0.0,0.0,91,0.00,,---,0.00,VWS V14.01,2013-11-06 08:40:00,
2013-11-06 03:41:00,44.0,41.3,30.49,NW,323,0.0,0.0,90,0.00,,---,0.00,VWS V14.01,2013-11-06 08:41:00,
2013-11-06 03:45:00,45.4,42.9,30.47,NW,323,0.0,0.0,91,0.00,,---,0.00,VWS V14.01,2013-11-06 08:45:00,
2013-11-06 03:46:00,43.8,41.1,30.50,NW,323,0.0,0.0,90,0.00,,---,0.00,VWS V14.01,2013-11-06 08:46:00,
2013-11-06 03:50:00,45.5,43.0,30.47,NW,323,0.0,0.0,91,0.00,,---,0.00,VWS V14.01,2013-11-06 08:50:00,
2013-11-06 03:51:00,43.5,40.8,30.49,NW,323,0.0,0.0,90,0.00,,---,0.00,VWS V14.01,2013-11-06 08:51:00,
2013-11-06 03:55:00,45.5,43.0,30.48,NW,323,0.0,0.0,91,0.00,,---,0.00,VWS V14.01,2013-11-06 08:55:00,
2013-11-06 03:56:00,43.2,40.8,30.49,NW,323,0.0,0.0,91,0.00,,---,0.00,VWS V14.01,2013-11-06 08:56:00,
2013-11-06 04:00:00,45.6,43.1,30.47,NW,323,0.0,0.0,91,0.00,,---,0.00,VWS V14.01,2013-11-06 09:00:00,
2013-11-06 04:01:00,43.1,40.4,30.49,NW,323,0.0,0.0,90,0.00,,---,0.00,VWS V14.01,2013-11-06 09:01:00,
2013-11-06 04:05:00,45.6,43.1,30.48,NW,323,0.0,0.0,91,0.00,,---,0.00,VWS V14.01,2013-11-06 09:05:00,
2013-11-06 04:06:00,43.1,40.4,30.49,NW,323,0.0,0.0,90,0.00,,---,0.00,VWS V14.01,2013-11-06 09:06:00,
2013-11-06 04:10:00,45.6,43.1,30.47,NW,323,0.0,0.0,91,0.00,,---,0.00,VWS V14.01,2013-11-06 09:10:00,
2013-11-06 04:11:00,43.1,40.4,30.48,NW,323,0.0,0.0,90,0.00,,---,0.00,VWS V14.01,2013-11-06 09:11:00,
2013-11-06 04:15:00,45.5,43.0,30.48,NW,323,0.0,0.0,91,0.00,,---,0.00,VWS V14.01,2013-11-06 09:15:00,
2013-11-06 04:16:00,43.0,40.3,30.48,NW,323,0.0,0.0,90,0.00,,---,0.00,VWS V14.01,2013-11-06 09:16:00,
2013-11-06 04:20:00,45.4,42.9,30.47,NW,323,0.0,0.0,91,0.00,,---,0.00,VWS V14.01,2013-11-06 09:20:00,
2013-11-06 04:21:00,43.4,41.0,30.48,NW,323,0.0,0.0,91,0.00,,---,0.00,VWS V14.01,2013-11-06 09:21:00,
2013-11-06 04:25:00,45.2,42.7,30.47,NW,323,0.0,0.0,91,0.00,,---,0.00,VWS V14.01,2013-11-06 09:25:00,
2013-11-06 04:26:00,43.7,41.2,30.48,NW,323,0.0,0.0,91,0.00,,---,0.00,VWS V14.01,2013-11-06 09:26:00,
2013-11-06 04:30:00,45.1,42.6,30.48,NW,323,0.0,0.0,91,0.00,,---,0.00,VWS V14.01,2013-11-06 09:30:00,
2013-11-06 04:31:00,44.1,41.7,30.47,NW,323,0.0,0.0,91,0.00,,---,0.00,VWS V14.01,2013-11-06 09:31:00,
2013-11-06 04:35:00,45.0,42.5,30.48,NW,323,0.0,0.0,91,0.00,,---,0.00,VWS V14.01,2013-11-06 09:35:00,
2013-11-06 04:36:00,44.6,42.1,30.47,NW,323,0.0,0.0,91,0.00,,---,0.00,VWS V14.01,2013-11-06 09:36:00,
2013-11-06 04:40:00,44.9,42.4,30.48,NW,323,0.0,0.0,91,0.00,,---,0.00,VWS V14.01,2013-11-06 09:40:00,
2013-11-06 04:41:00,45.1,42.6,30.47,NW,323,0.0,0.0,91,0.00,,---,0.00,VWS V14.01,2013-11-06 09:41:00,
2013-11-06 04:45:00,45.0,42.8,30.48,NW,323,0.0,0.0,92,0.00,,---,0.00,VWS V14.01,2013-11-06 09:45:00,
2013-11-06 04:46:00,45.4,42.9,30.47,NW,323,0.0,0.0,91,0.00,,---,0.00,VWS V14.01,2013-11-06 09:46:00,
2013-11-06 04:50:00,44.9,42.7,30.48,NW,323,0.0,0.0,92,0.00,,---,0.00,VWS V14.01,2013-11-06 09:50:00,
2013-11-06 04:51:00,45.5,43.0,30.47,NW,323,0.0,0.0,91,0.00,,---,0.00,VWS V14.01,2013-11-06 09:51:00,
2013-11-06 04:55:00,44.8,42.3,30.48,NW,323,0.0,0.0,91,0.00,,---,0.00,VWS V14.01,2013-11-06 09:55:00,
2013-11-06 04:56:00,45.5,43.0,30.48,NW,323,0.0,0.0,91,0.00,,---,0.00,VWS V14.01,2013-11-06 09:56:00,
2013-11-06 05:00:00,44.7,42.2,30.48,NW,323,0.0,0.0,91,0.00,,---,0.00,VWS V14.01,2013-11-06 10:00:00,
2013-11-06 05:01:00,45.6,43.1,30.47,NW,323,0.0,0.0,91,0.00,,---,0.00,VWS V14.01,2013-11-06 10:01:00,
2013-11-06 05:05:00,44.5,42.0,30.48,NW,323,0.0,0.0,91,0.00,,---,0.00,VWS V14.01,2013-11-06 10:05:00,
2013-11-06 05:06:00,45.6,43.1,30.48,NW,323,0.0,0.0,91,0.00,,---,0.00,VWS V14.01,2013-11-06 10:06:00,
2013-11-06 05:10:00,44.6,42.4,30.47,NW,323,0.0,0.0,92,0.00,,---,0.00,VWS V14.01,2013-11-06 10:10:00,
2013-11-06 05:11:00,45.6,43.1,30.48,NW,323,0.0,0.0,91,0.00,,---,0.00,VWS V14.01,2013-11-06 10:11:00,
2013-11-06 05:15:00,44.7,42.5,30.47,NW,323,0.0,0.0,92,0.00,,---,0.00,VWS V14.01,2013-11-06 10:15:00,
2013-11-06 05:16:00,45.5,43.0,30.47,NW,323,0.0,0.0,91,0.00,,---,0.00,VWS V14.01,2013-11-06 10:16:00,
2013-11-06 05:20:00,44.9,42.7,30.47,NW,323,0.0,0.0,92,0.00,,---,0.00,VWS V14.01,2013-11-06 10:20:00,
2013-11-06 05:21:00,45.4,42.9,30.48,NW,323,0.0,0.0,91,0.00,,---,0.00,VWS V14.01,2013-11-06 10:21:00,
2013-11-06 05:25:00,44.9,42.4,30.47,NW,323,0.0,0.0,91,0.00,,---,0.00,VWS V14.01,2013-11-06 10:25:00,
2013-11-06 05:26:00,45.2,42.7,30.47,NW,323,0.0,0.0,91,0.00,,---,0.00,VWS V14.01,2013-11-06 10:26:00,
2013-11-06 05:30:00,44.9,42.4,30.48,NW,323,0.0,0.0,91,0.00,,---,0.00,VWS V14.01,2013-11-06 10:30:00,
2013-11-06 05:31:00,45.0,42.5,30.48,NW,323,0.0,0.0,91,0.00,,---,0.00,VWS V14.01,2013-11-06 10:31:00,
2013-11-06 05:35:00,45.0,42.2,30.47,NW,323,0.0,0.0,90,0.00,,---,0.00,VWS V14.01,2013-11-06 10:35:00,
2013-11-06 05:36:00,45.0,42.5,30.48,NW,323,0.0,0.0,91,0.00,,---,0.00,VWS V14.01,2013-11-06 10:36:00,
2013-11-06 05:40:00,45.0,42.0,30.47,NW,323,0.0,0.0,89,0.00,,---,0.00,VWS V14.01,2013-11-06 10:40:00,
2013-11-06 05:41:00,44.9,42.7,30.48,NW,323,0.0,0.0,92,0.00,,---,0.00,VWS V14.01,2013-11-06 10:41:00,
2013-11-06 05:45:00,45.1,41.8,30.48,NW,323,0.0,0.0,88,0.00,,---,0.00,VWS V14.01,2013-11-06 10:45:00,
2013-11-06 05:46:00,44.9,42.7,30.48,NW,323,0.0,0.0,92,0.00,,---,0.00,VWS V14.01,2013-11-06 10:46:00,
2013-11-06 05:50:00,45.3,41.4,30.48,NW,323,0.0,0.0,86,0.00,,---,0.00,VWS V14.01,2013-11-06 10:50:00,
2013-11-06 05:51:00,44.9,42.7,30.48,NW,323,0.0,0.0,92,0.00,,---,0.00,VWS V14.01,2013-11-06 10:51:00,
2013-11-06 05:55:00,45.6,42.0,30.47,NW,323,0.0,0.0,87,0.00,,---,0.00,VWS V14.01,2013-11-06 10:55:00,
2013-11-06 05:56:00,44.8,42.3,30.48,NW,323,0.0,0.0,91,0.00,,---,0.00,VWS V14.01,2013-11-06 10:56:00,
2013-11-06 06:00:00,46.0,42.7,30.47,NW,323,0.0,0.0,88,0.00,,---,0.00,VWS V14.01,2013-11-06 11:00:00,
2013-11-06 06:01:00,44.7,42.2,30.48,NW,323,0.0,0.0,91,0.00,,---,0.00,VWS V14.01,2013-11-06 11:01:00,
2013-11-06 06:05:00,46.3,43.0,30.47,NW,323,0.0,0.0,88,0.00,,---,0.00,VWS V14.01,2013-11-06 11:05:00,
2013-11-06 06:06:00,44.5,42.0,30.48,NW,323,0.0,0.0,91,0.00,,---,0.00,VWS V14.01,2013-11-06 11:06:00,
2013-11-06 06:10:00,46.4,42.8,30.47,NW,323,0.0,0.0,87,0.00,,---,0.00,VWS V14.01,2013-11-06 11:10:00,
2013-11-06 06:11:00,44.6,42.4,30.47,NW,323,0.0,0.0,92,0.00,,---,0.00,VWS V14.01,2013-11-06 11:11:00,
2013-11-06 06:15:00,46.5,42.8,30.47,NW,323,0.0,0.0,87,0.00,,---,0.00,VWS V14.01,2013-11-06 11:15:00,
2013-11-06 06:16:00,44.7,42.5,30.47,NW,323,0.0,0.0,92,0.00,,---,0.00,VWS V14.01,2013-11-06 11:16:00,
2013-11-06 06:20:00,46.5,42.8,30.46,NW,323,0.0,0.0,87,0.00,,---,0.00,VWS V14.01,2013-11-06 11:20:00,
2013-11-06 06:21:00,44.8,42.6,30.47,NW,323,0.0,0.0,92,0.00,,---,0.00,VWS V14.01,2013-11-06 11:21:00,
2013-11-06 06:25:00,46.8,42.8,30.46,NW,323,0.0,0.0,86,0.00,,---,0.00,VWS V14.01,2013-11-06 11:25:00,
2013-11-06 06:26:00,44.9,42.4,30.47,NW,323,0.0,0.0,91,0.00,,---,0.00,VWS V14.01,2013-11-06 11:26:00,
2013-11-06 06:30:00,47.5,43.2,30.46,NW,323,0.0,0.0,85,0.00,,---,0.00,VWS V14.01,2013-11-06 11:30:00,
2013-11-06 06:31:00,44.9,42.4,30.47,NW,323,0.0,0.0,91,0.00,,---,0.00,VWS V14.01,2013-11-06 11:31:00,
2013-11-06 06:35:00,48.3,43.1,30.46,NW,323,0.0,0.0,82,0.00,,---,0.00,VWS V14.01,2013-11-06 11:35:00,
2013-11-06 06:36:00,44.9,42.2,30.47,NW,323,0.0,0.0,90,0.00,,---,0.00,VWS V14.01,2013-11-06 11:36:00,
2013-11-06 06:40:00,49.0,43.1,30.46,NW,323,0.0,0.0,80,0.00,,---,0.00,VWS V14.01,2013-11-06 11:40:00,
2013-11-06 06:41:00,45.0,42.0,30.47,NW,323,0.0,0.0,89,0.00,,---,0.00,VWS V14.01,2013-11-06 11:41:00,
2013-11-06 06:45:00,49.6,43.7,30.46,NW,323,0.0,0.0,80,0.00,,---,0.00,VWS V14.01,2013-11-06 11:45:00,
2013-11-06 06:46:00,45.1,41.8,30.48,NW,323,0.0,0.0,88,0.00,,---,0.00,VWS V14.01,2013-11-06 11:46:00,
2013-11-06 06:50:00,50.2,43.6,30.46,NW,323,0.0,0.0,78,0.00,,---,0.00,VWS V14.01,2013-11-06 11:50:00,
2013-11-06 06:51:00,45.3,41.4,30.48,NW,323,0.0,0.0,86,0.00,,---,0.00,VWS V14.01,2013-11-06 11:51:00,
2013-11-06 06:55:00,50.9,44.0,30.46,NW,323,0.0,0.0,77,0.00,,---,0.00,VWS V14.01,2013-11-06 11:55:00,
2013-11-06 06:56:00,45.6,42.0,30.47,NW,323,0.0,0.0,87,0.00,,---,0.00,VWS V14.01,2013-11-06 11:56:00,
2013-11-06 07:00:00,51.6,44.0,30.46,NW,323,0.0,0.0,75,0.00,,---,0.00,VWS V14.01,2013-11-06 12:00:00,
2013-11-06 07:01:00,46.0,42.7,30.47,NW,323,0.0,0.0,88,0.00,,---,0.00,VWS V14.01,2013-11-06 12:01:00,
2013-11-06 07:05:00,52.2,44.2,30.46,WSW,250,2.0,2.0,74,0.00,,---,0.00,VWS V14.01,2013-11-06 12:05:00,
2013-11-06 07:06:00,46.3,43.0,30.47,NW,323,0.0,0.0,88,0.00,,---,0.00,VWS V14.01,2013-11-06 12:06:00,
2013-11-06 07:10:00,52.7,44.3,30.46,SW,225,0.0,3.0,73,0.00,,---,0.00,VWS V14.01,2013-11-06 12:10:00,
2013-11-06 07:11:00,46.4,42.8,30.47,NW,323,0.0,0.0,87,0.00,,---,0.00,VWS V14.01,2013-11-06 12:11:00,
2013-11-06 07:15:00,52.7,43.9,30.46,SW,223,2.0,5.0,72,0.00,,---,0.00,VWS V14.01,2013-11-06 12:15:00,
2013-11-06 07:16:00,46.5,42.8,30.47,NW,323,0.0,0.0,87,0.00,,---,0.00,VWS V14.01,2013-11-06 12:16:00,
2013-11-06 07:20:00,52.4,44.0,30.46,SW,223,0.0,3.0,73,0.00,,---,0.00,VWS V14.01,2013-11-06 12:20:00,
2013-11-06 07:21:00,46.5,42.8,30.46,NW,323,0.0,0.0,87,0.00,,---,0.00,VWS V14.01,2013-11-06 12:21:00,
2013-11-06 07:25:00,52.2,44.2,30.46,SW,223,0.0,1.0,74,0.00,,---,0.00,VWS V14.01,2013-11-06 12:25:00,
2013-11-06 07:26:00,46.8,42.8,30.46,NW,323,0.0,0.0,86,0.00,,---,0.00,VWS V14.01,2013-11-06 12:26:00,
2013-11-06 07:30:00,52.4,44.4,30.45,SW,217,0.0,1.0,74,0.00,,---,0.00,VWS V14.01,2013-11-06 12:30:00,
2013-11-06 07:31:00,47.5,43.2,30.46,NW,323,0.0,0.0,85,0.00,,---,0.00,VWS V14.01,2013-11-06 12:31:00,
2013-11-06 07:35:00,52.8,45.1,30.45,SSW,204,0.0,3.0,75,0.00,,---,0.00,VWS V14.01,2013-11-06 12:35:00,
2013-11-06 07:36:00,48.3,43.1,30.46,NW,323,0.0,0.0,82,0.00,,---,0.00,VWS V14.01,2013-11-06 12:36:00,
2013-11-06 07:40:00,53.1,45.0,30.45,WSW,244,0.0,3.0,74,0.00,,---,0.00,VWS V14.01,2013-11-06 12:40:00,
2013-11-06 07:41:00,49.0,43.1,30.46,NW,323,0.0,0.0,80,0.00,,---,0.00,VWS V14.01,2013-11-06 12:41:00,
2013-11-06 07:45:00,53.2,44.8,30.45,SSW,198,3.0,7.0,73,0.00,,---,0.00,VWS V14.01,2013-11-06 12:45:00,
2013-11-06 07:46:00,49.6,43.7,30.46,NW,323,0.0,0.0,80,0.00,,---,0.00,VWS V14.01,2013-11-06 12:46:00,
2013-11-06 07:50:00,53.2,44.8,30.44,SW,234,3.0,6.0,73,0.00,,---,0.00,VWS V14.01,2013-11-06 12:50:00,
2013-11-06 07:51:00,50.2,44.0,30.46,NW,323,0.0,0.0,79,0.00,,---,0.00,VWS V14.01,2013-11-06 12:51:00,
2013-11-06 07:55:00,53.3,44.5,30.44,SW,222,1.0,6.0,72,0.00,,---,0.00,VWS V14.01,2013-11-06 12:55:00,
2013-11-06 07:56:00,50.9,44.0,30.46,NW,323,0.0,0.0,77,0.00,,---,0.00,VWS V14.01,2013-11-06 12:56:00,
2013-11-06 08:00:00,53.5,44.3,30.44,West,262,6.0,6.0,71,0.00,,---,0.00,VWS V14.01,2013-11-06 13:00:00,
2013-11-06 08:01:00,51.6,44.0,30.46,NW,323,0.0,0.0,75,0.00,,---,0.00,VWS V14.01,2013-11-06 13:01:00,
2013-11-06 08:05:00,53.5,44.0,30.44,SSW,192,4.0,7.0,70,0.00,,---,0.00,VWS V14.01,2013-11-06 13:05:00,
2013-11-06 08:06:00,52.2,44.2,30.46,WSW,250,2.0,2.0,74,0.00,,---,0.00,VWS V14.01,2013-11-06 13:06:00,
2013-11-06 08:10:00,53.5,44.0,30.44,SW,233,3.0,9.0,70,0.00,,---,0.00,VWS V14.01,2013-11-06 13:10:00,
2013-11-06 08:11:00,52.7,44.3,30.46,SW,225,0.0,3.0,73,0.00,,---,0.00,VWS V14.01,2013-11-06 13:11:00,
2013-11-06 08:15:00,53.8,44.3,30.44,SSW,213,3.0,9.0,70,0.00,,---,0.00,VWS V14.01,2013-11-06 13:15:00,
2013-11-06 08:16:00,52.7,43.9,30.46,SW,222,5.0,5.0,72,0.00,,---,0.00,VWS V14.01,2013-11-06 13:16:00,
2013-11-06 08:20:00,54.2,44.6,30.44,WSW,249,5.0,9.0,70,0.00,,---,0.00,VWS V14.01,2013-11-06 13:20:00,
2013-11-06 08:21:00,52.4,44.0,30.46,SW,223,0.0,3.0,73,0.00,,---,0.00,VWS V14.01,2013-11-06 13:21:00,
2013-11-06 08:25:00,54.4,44.8,30.44,SSW,202,5.0,9.0,70,0.00,,---,0.00,VWS V14.01,2013-11-06 13:25:00,
2013-11-06 08:26:00,52.2,44.2,30.46,SW,223,0.0,1.0,74,0.00,,---,0.00,VWS V14.01,2013-11-06 13:26:00,
2013-11-06 08:30:00,54.4,44.8,30.44,WSW,242,4.0,7.0,70,0.00,,---,0.00,VWS V14.01,2013-11-06 13:30:00,
2013-11-06 08:31:00,52.3,44.6,30.45,SW,218,0.0,1.0,75,0.00,,---,0.00,VWS V14.01,2013-11-06 13:31:00,
2013-11-06 08:35:00,54.6,45.4,30.43,SW,220,3.0,6.0,71,0.00,,---,0.00,VWS V14.01,2013-11-06 13:35:00,
2013-11-06 08:36:00,52.8,45.1,30.45,SSW,204,0.0,3.0,75,0.00,,---,0.00,VWS V14.01,2013-11-06 13:36:00,
2013-11-06 08:40:00,54.8,45.2,30.44,South,190,7.0,9.0,70,0.00,,---,0.00,VWS V14.01,2013-11-06 13:40:00,
2013-11-06 08:41:00,53.1,45.0,30.45,WSW,244,0.0,3.0,74,0.00,,---,0.00,VWS V14.01,2013-11-06 13:41:00,
2013-11-06 08:45:00,55.2,45.2,30.44,SSW,209,7.0,8.0,69,0.00,,---,0.00,VWS V14.01,2013-11-06 13:45:00,
2013-11-06 08:46:00,53.2,44.8,30.45,SSW,195,3.0,7.0,73,0.00,,---,0.00,VWS V14.01,2013-11-06 13:46:00,
2013-11-06 08:50:00,54.9,45.3,30.43,SSW,205,7.0,9.0,70,0.00,,---,0.00,VWS V14.01,2013-11-06 13:50:00,
2013-11-06 08:51:00,53.2,44.8,30.44,SW,234,3.0,6.0,73,0.00,,---,0.00,VWS V14.01,2013-11-06 13:51:00,
2013-11-06 08:55:00,55.0,45.8,30.43,SSW,200,5.0,9.0,71,0.00,,---,0.00,VWS V14.01,2013-11-06 13:55:00,
2013-11-06 08:56:00,53.3,44.5,30.44,SW,222,1.0,6.0,72,0.00,,---,0.00,VWS V14.01,2013-11-06 13:56:00,
2013-11-06 09:00:00,55.1,45.5,30.43,SSW,210,8.0,11.0,70,0.00,,---,0.00,VWS V14.01,2013-11-06 14:00:00,
2013-11-06 09:01:00,53.5,44.3,30.44,WSW,244,3.0,6.0,71,0.00,,---,0.00,VWS V14.01,2013-11-06 14:01:00,
2013-11-06 09:05:00,55.1,45.5,30.43,SW,227,9.0,9.0,70,0.00,,---,0.00,VWS V14.01,2013-11-06 14:05:00,
2013-11-06 09:06:00,53.5,44.0,30.44,SSW,192,4.0,7.0,70,0.00,,---,0.00,VWS V14.01,2013-11-06 14:06:00,
2013-11-06 09:10:00,55.0,45.4,30.42,SW,227,7.0,10.0,70,0.00,,---,0.00,VWS V14.01,2013-11-06 14:10:00,
2013-11-06 09:11:00,53.5,44.0,30.44,WSW,247,3.0,9.0,70,0.00,,---,0.00,VWS V14.01,2013-11-06 14:11:00,
2013-11-06 09:15:00,53.8,44.3,30.44,SW,235,4.0,9.0,70,0.00,,---,0.00,VWS V14.01,2013-11-06 14:15:00,
2013-11-06 09:20:00,54.2,44.6,30.44,SW,218,1.0,9.0,70,0.00,,---,0.00,VWS V14.01,2013-11-06 14:20:00,
2013-11-06 09:25:00,54.4,44.8,30.44,WSW,237,7.0,9.0,70,0.00,,---,0.00,VWS V14.01,2013-11-06 14:25:00,
2013-11-06 09:30:00,54.4,44.5,30.44,SW,223,7.0,7.0,69,0.00,,---,0.00,VWS V14.01,2013-11-06 14:30:00,
2013-11-06 09:35:00,54.6,45.4,30.44,SSW,202,2.0,6.0,71,0.00,,---,0.00,VWS V14.01,2013-11-06 14:35:00,
2013-11-06 09:40:00,54.8,45.2,30.44,SW,214,3.0,9.0,70,0.00,,---,0.00,VWS V14.01,2013-11-06 14:40:00,
2013-11-06 09:45:00,55.1,45.1,30.44,SSW,208,7.0,8.0,69,0.00,,---,0.00,VWS V14.01,2013-11-06 14:45:00,
2013-11-06 09:50:00,54.9,45.3,30.43,SW,222,0.0,9.0,70,0.00,,---,0.00,VWS V14.01,2013-11-06 14:50:00,
2013-11-06 09:55:00,55.0,45.8,30.43,SW,218,9.0,9.0,71,0.00,,---,0.00,VWS V14.01,2013-11-06 14:55:00,
2013-11-06 10:00:00,55.1,45.5,30.43,WSW,239,5.0,11.0,70,0.00,,---,0.00,VWS V14.01,2013-11-06 15:00:00,
2013-11-06 10:05:00,55.1,45.5,30.43,SSW,197,9.0,9.0,70,0.00,,---,0.00,VWS V14.01,2013-11-06 15:05:00,
2013-11-06 10:10:00,55.1,45.5,30.42,SW,224,5.0,10.0,70,0.00,,---,0.00,VWS V14.01,2013-11-06 15:10:00,
2013-11-06 10:15:00,54.7,45.9,30.42,SSW,210,8.0,9.0,72,0.00,,---,0.00,VWS V14.01,2013-11-06 15:15:00,
2013-11-06 10:20:00,54.4,45.9,30.42,South,189,0.0,11.0,73,0.00,,---,0.00,VWS V14.01,2013-11-06 15:20:00,
2013-11-06 10:25:00,54.6,46.1,30.42,SW,222,0.0,9.0,73,0.00,,---,0.00,VWS V14.01,2013-11-06 15:25:00,
2013-11-06 10:30:00,55.0,46.2,30.41,SSW,195,10.0,11.0,72,0.00,,---,0.00,VWS V14.01,2013-11-06 15:30:00,
2013-11-06 10:35:00,54.8,46.7,30.41,SSW,212,2.0,15.0,74,0.00,,---,0.00,VWS V14.01,2013-11-06 15:35:00,
2013-11-06 10:40:00,55.7,46.8,30.41,SSW,202,10.0,10.0,72,0.00,,---,0.00,VWS V14.01,2013-11-06 15:40:00,
2013-11-06 10:45:00,55.9,47.0,30.41,SSW,206,3.0,11.0,72,0.00,,---,0.00,VWS V14.01,2013-11-06 15:45:00,
2013-11-06 10:50:00,55.5,46.3,30.41,SSW,197,4.0,13.0,71,0.00,,---,0.00,VWS V14.01,2013-11-06 15:50:00,
2013-11-06 10:55:00,55.1,46.2,30.40,SSW,209,11.0,15.0,72,0.00,,---,0.00,VWS V14.01,2013-11-06 15:55:00,
2013-11-06 11:00:00,55.0,46.2,30.40,SSW,210,13.0,14.0,72,0.00,,---,0.00,VWS V14.01,2013-11-06 16:00:00,
2013-11-06 11:05:00,55.0,46.2,30.39,SSW,210,9.0,14.0,72,0.00,,---,0.00,VWS V14.01,2013-11-06 16:05:00,
2013-11-06 11:10:00,54.9,46.4,30.39,SSW,200,8.0,14.0,73,0.00,,---,0.00,VWS V14.01,2013-11-06 16:10:00,
2013-11-06 11:15:00,55.0,46.5,30.38,SSW,212,10.0,13.0,73,0.00,,---,0.00,VWS V14.01,2013-11-06 16:15:00,
2013-11-06 11:20:00,55.8,47.3,30.38,SW,214,2.0,10.0,73,0.00,,---,0.00,VWS V14.01,2013-11-06 16:20:00,
2013-11-06 11:25:00,56.3,47.0,30.38,SSW,203,6.0,14.0,71,0.00,,---,0.00,VWS V14.01,2013-11-06 16:25:00,
2013-11-06 11:30:00,55.8,46.9,30.38,SSW,195,10.0,13.0,72,0.00,,---,0.00,VWS V14.01,2013-11-06 16:30:00,
2013-11-06 11:35:00,55.7,46.8,30.37,SSW,205,9.0,12.0,72,0.00,,---,0.00,VWS V14.01,2013-11-06 16:35:00,
2013-11-06 11:40:00,55.9,47.0,30.36,SW,222,10.0,14.0,72,0.00,,---,0.00,VWS V14.01,2013-11-06 16:40:00,
2013-11-06 11:45:00,56.1,47.6,30.36,SW,225,10.0,13.0,73,0.00,,---,0.00,VWS V14.01,2013-11-06 16:45:00,
2013-11-06 11:50:00,56.0,47.1,30.36,SSW,213,13.0,13.0,72,0.00,,---,0.00,VWS V14.01,2013-11-06 16:50:00,
2013-11-06 11:55:00,56.2,47.3,30.36,SW,231,5.0,13.0,72,0.00,,---,0.00,VWS V14.01,2013-11-06 16:55:00,
2013-11-06 12:00:00,56.3,47.0,30.35,SW,232,11.0,13.0,71,0.00,,---,0.00,VWS V14.01,2013-11-06 17:00:00,
2013-11-06 12:05:00,56.2,46.9,30.35,SSW,208,6.0,14.0,71,0.00,,---,0.00,VWS V14.01,2013-11-06 17:05:00,
2013-11-06 12:10:00,56.4,47.5,30.35,SSW,206,7.0,12.0,72,0.00,,---,0.00,VWS V14.01,2013-11-06 17:10:00,
2013-11-06 12:15:00,56.3,47.4,30.35,SW,220,8.0,15.0,72,0.00,,---,0.00,VWS V14.01,2013-11-06 17:15:00,
2013-11-06 12:20:00,56.5,47.6,30.34,SW,220,7.0,14.0,72,0.00,,---,0.00,VWS V14.01,2013-11-06 17:20:00,
2013-11-06 12:25:00,56.6,48.1,30.34,SW,233,8.0,12.0,73,0.00,,---,0.00,VWS V14.01,2013-11-06 17:25:00,
2013-11-06 12:30:00,56.7,48.2,30.34,SW,231,4.0,13.0,73,0.00,,---,0.00,VWS V14.01,2013-11-06 17:30:00,
2013-11-06 12:35:00,56.8,48.6,30.34,SW,227,10.0,13.0,74,0.00,,---,0.00,VWS V14.01,2013-11-06 17:35:00,
2013-11-06 12:40:00,56.7,48.2,30.34,WSW,247,4.0,14.0,73,0.00,,---,0.00,VWS V14.01,2013-11-06 17:40:00,
2013-11-06 12:45:00,56.9,48.7,30.34,SW,224,6.0,11.0,74,0.00,,---,0.00,VWS V14.01,2013-11-06 17:45:00,
2013-11-06 12:50:00,57.3,49.1,30.33,SW,231,7.0,11.0,74,0.00,,---,0.00,VWS V14.01,2013-11-06 17:50:00,
2013-11-06 12:55:00,57.1,48.9,30.33,SSW,194,2.0,11.0,74,0.00,,---,0.00,VWS V14.01,2013-11-06 17:55:00,
2013-11-06 13:00:00,56.6,48.8,30.33,SSW,212,5.0,13.0,75,0.00,,---,0.00,VWS V14.01,2013-11-06 18:00:00,
2013-11-06 13:05:00,56.9,49.1,30.33,SW,218,6.0,12.0,75,0.00,,---,0.00,VWS V14.01,2013-11-06 18:05:00,
2013-11-06 13:10:00,56.8,49.0,30.32,SW,225,5.0,14.0,75,0.00,,---,0.00,VWS V14.01,2013-11-06 18:10:00,
2013-11-06 13:15:00,56.9,49.4,30.32,SW,223,14.0,15.0,76,0.00,,---,0.00,VWS V14.01,2013-11-06 18:15:00,
2013-11-06 13:20:00,56.9,49.1,30.32,SW,218,16.0,16.0,75,0.00,,---,0.00,VWS V14.01,2013-11-06 18:20:00,
2013-11-06 13:25:00,57.0,49.2,30.32,WSW,242,4.0,15.0,75,0.00,,---,0.00,VWS V14.01,2013-11-06 18:25:00,
2013-11-06 13:30:00,57.2,49.4,30.32,SW,214,6.0,14.0,75,0.00,,---,0.00,VWS V14.01,2013-11-06 18:30:00,
2013-11-06 13:35:00,56.3,48.8,30.32,SW,227,10.0,14.0,76,0.00,,---,0.00,VWS V14.01,2013-11-06 18:35:00,
2013-11-06 13:40:00,55.8,49.4,30.32,SSW,201,8.0,15.0,79,0.00,,---,0.00,VWS V14.01,2013-11-06 18:40:00,
2013-11-06 13:45:00,56.1,50.0,30.31,SW,233,4.0,12.0,80,0.00,,---,0.00,VWS V14.01,2013-11-06 18:45:00,
2013-11-06 13:50:00,56.2,50.1,30.31,SSW,195,11.0,13.0,80,0.00,,---,0.00,VWS V14.01,2013-11-06 18:50:00,
2013-11-06 13:55:00,57.0,50.6,30.30,SSW,199,3.0,11.0,79,0.00,,---,0.00,VWS V14.01,2013-11-06 18:55:00,
2013-11-06 14:00:00,56.7,50.3,30.30,SSW,195,9.0,14.0,79,0.00,,---,0.00,VWS V14.01,2013-11-06 19:00:00,
2013-11-06 14:05:00,56.6,50.2,30.30,SW,227,8.0,11.0,79,0.00,,---,0.00,VWS V14.01,2013-11-06 19:05:00,
2013-11-06 14:10:00,56.5,50.4,30.30,SW,227,5.0,16.0,80,0.00,,---,0.00,VWS V14.01,2013-11-06 19:10:00,
2013-11-06 14:15:00,56.9,50.5,30.29,SSW,200,4.0,15.0,79,0.00,,---,0.00,VWS V14.01,2013-11-06 19:15:00,
2013-11-06 14:20:00,57.3,50.5,30.29,SSW,198,9.0,14.0,78,0.00,,---,0.00,VWS V14.01,2013-11-06 19:20:00,
2013-11-06 14:25:00,57.0,50.2,30.29,South,182,11.0,17.0,78,0.00,,---,0.00,VWS V14.01,2013-11-06 19:25:00,
2013-11-06 14:30:00,56.9,50.5,30.29,SW,225,10.0,13.0,79,0.00,,---,0.00,VWS V14.01,2013-11-06 19:30:00,
2013-11-06 14:35:00,56.9,50.5,30.29,SW,225,10.0,14.0,79,0.00,,---,0.00,VWS V14.01,2013-11-06 19:35:00,
2013-11-06 14:40:00,57.1,51.0,30.29,SSW,211,8.0,15.0,80,0.00,,---,0.00,VWS V14.01,2013-11-06 19:40:00,
2013-11-06 14:45:00,56.6,50.5,30.29,SW,221,5.0,14.0,80,0.00,,---,0.00,VWS V14.01,2013-11-06 19:45:00,
2013-11-06 14:50:00,56.0,50.3,30.29,SSW,210,10.0,14.0,81,0.00,,---,0.00,VWS V14.01,2013-11-06 19:50:00,
2013-11-06 14:55:00,55.9,50.5,30.29,SW,219,9.0,15.0,82,0.00,,---,0.00,VWS V14.01,2013-11-06 19:55:00,
2013-11-06 15:00:00,55.9,50.5,30.29,SW,220,7.0,11.0,82,0.00,,---,0.00,VWS V14.01,2013-11-06 20:00:00,
2013-11-06 15:05:00,55.7,50.3,30.29,SW,214,9.0,15.0,82,0.00,,---,0.00,VWS V14.01,2013-11-06 20:05:00,
2013-11-06 15:10:00,55.7,50.6,30.29,SSW,210,9.0,15.0,83,0.00,,---,0.00,VWS V14.01,2013-11-06 20:10:00,
2013-11-06 15:15:00,55.6,50.5,30.29,SSW,202,7.0,13.0,83,0.00,,---,0.00,VWS V14.01,2013-11-06 20:15:00,
2013-11-06 15:20:00,55.6,50.8,30.29,SW,222,5.0,11.0,84,0.00,,---,0.00,VWS V14.01,2013-11-06 20:20:00,
2013-11-06 15:25:00,55.5,50.8,30.29,SSW,206,8.0,14.0,84,0.00,,---,0.00,VWS V14.01,2013-11-06 20:25:00,
2013-11-06 15:30:00,55.5,50.8,30.28,SW,214,10.0,14.0,84,0.00,,---,0.00,VWS V14.01,2013-11-06 20:30:00,
2013-11-06 15:35:00,55.6,50.8,30.28,SSW,205,8.0,14.0,84,0.00,,---,0.00,VWS V14.01,2013-11-06 20:35:00,
2013-11-06 15:40:00,55.5,50.8,30.28,SSW,213,8.0,11.0,84,0.00,,---,0.00,VWS V14.01,2013-11-06 20:40:00,
2013-11-06 15:45:00,55.5,51.1,30.28,SW,236,5.0,12.0,85,0.00,,---,0.00,VWS V14.01,2013-11-06 20:45:00,
2013-11-06 15:50:00,55.4,51.0,30.28,SSW,210,8.0,12.0,85,0.00,,---,0.00,VWS V14.01,2013-11-06 20:50:00,
2013-11-06 15:55:00,55.2,51.1,30.27,SSW,203,11.0,12.0,86,0.00,,---,0.00,VWS V14.01,2013-11-06 20:55:00,
2013-11-06 16:00:00,55.2,51.1,30.27,SSE,166,6.0,13.0,86,0.00,,---,0.00,VWS V14.01,2013-11-06 21:00:00,
2013-11-06 16:05:00,55.3,51.2,30.27,SSW,193,14.0,14.0,86,0.00,,---,0.00,VWS V14.01,2013-11-06 21:05:00,
2013-11-06 16:10:00,55.2,51.1,30.27,SSW,212,9.0,13.0,86,0.00,,---,0.00,VWS V14.01,2013-11-06 21:10:00,
2013-11-06 16:15:00,55.2,51.1,30.27,SSW,206,7.0,12.0,86,0.00,,---,0.00,VWS V14.01,2013-11-06 21:15:00,
2013-11-06 16:20:00,55.2,51.4,30.27,South,188,8.0,14.0,87,0.00,,---,0.00,VWS V14.01,2013-11-06 21:20:00,
2013-11-06 16:25:00,55.2,51.4,30.27,SW,214,9.0,15.0,87,0.00,,---,0.00,VWS V14.01,2013-11-06 21:25:00,
2013-11-06 16:30:00,55.3,51.5,30.27,SSW,206,13.0,13.0,87,0.00,,---,0.00,VWS V14.01,2013-11-06 21:30:00,
2013-11-06 16:35:00,55.3,51.5,30.27,SW,226,8.0,12.0,87,0.00,,---,0.00,VWS V14.01,2013-11-06 21:35:00,
2013-11-06 16:40:00,55.3,51.8,30.26,SW,233,5.0,12.0,88,0.00,,---,0.00,VWS V14.01,2013-11-06 21:40:00,
2013-11-06 16:45:00,55.2,51.7,30.26,SSW,200,8.0,11.0,88,0.00,,---,0.00,VWS V14.01,2013-11-06 21:45:00,
2013-11-06 16:50:00,55.2,52.0,30.26,SW,224,6.0,12.0,89,0.00,,---,0.00,VWS V14.01,2013-11-06 21:50:00,
2013-11-06 16:55:00,55.2,52.0,30.26,SSW,204,6.0,11.0,89,0.00,,---,0.00,VWS V14.01,2013-11-06 21:55:00,
2013-11-06 17:00:00,55.2,52.0,30.26,South,173,8.0,12.0,89,0.00,,---,0.00,VWS V14.01,2013-11-06 22:00:00,
2013-11-06 17:05:00,55.3,51.8,30.25,South,189,8.0,14.0,88,0.00,,---,0.00,VWS V14.01,2013-11-06 22:05:00,
2013-11-06 17:10:00,55.3,51.8,30.26,SSW,208,10.0,13.0,88,0.00,,---,0.00,VWS V14.01,2013-11-06 22:10:00,
2013-11-06 17:15:00,55.3,51.8,30.25,South,190,4.0,11.0,88,0.00,,---,0.00,VWS V14.01,2013-11-06 22:15:00,
2013-11-06 17:20:00,55.3,52.1,30.26,SW,227,7.0,10.0,89,0.00,,---,0.00,VWS V14.01,2013-11-06 22:20:00,
2013-11-06 17:25:00,55.2,52.0,30.25,South,170,6.0,10.0,89,0.00,,---,0.00,VWS V14.01,2013-11-06 22:25:00,
2013-11-06 17:30:00,55.2,52.0,30.25,SSW,212,6.0,14.0,89,0.00,,---,0.00,VWS V14.01,2013-11-06 22:30:00,
2013-11-06 17:35:00,55.2,52.0,30.25,South,187,5.0,10.0,89,0.00,,---,0.00,VWS V14.01,2013-11-06 22:35:00,
2013-11-06 17:40:00,55.3,52.1,30.25,SW,219,5.0,12.0,89,0.00,,---,0.00,VWS V14.01,2013-11-06 22:40:00,
2013-11-06 17:45:00,55.3,52.1,30.25,SW,227,7.0,11.0,89,0.00,,---,0.00,VWS V14.01,2013-11-06 22:45:00,
2013-11-06 17:50:00,55.4,52.2,30.25,SSW,197,8.0,12.0,89,0.00,,---,0.00,VWS V14.01,2013-11-06 22:50:00,
2013-11-06 17:55:00,55.4,52.2,30.25,South,179,3.0,11.0,89,0.00,,---,0.00,VWS V14.01,2013-11-06 22:55:00,
2013-11-06 18:00:00,55.4,52.5,30.25,SSW,207,9.0,13.0,90,0.00,,---,0.00,VWS V14.01,2013-11-06 23:00:00,
2013-11-06 18:05:00,55.5,52.6,30.25,SSW,202,8.0,10.0,90,0.00,,---,0.00,VWS V14.01,2013-11-06 23:05:00,
2013-11-06 18:10:00,55.5,52.6,30.24,SW,235,11.0,12.0,90,0.00,,---,0.00,VWS V14.01,2013-11-06 23:10:00,
2013-11-06 18:15:00,55.6,52.7,30.25,SSW,204,7.0,10.0,90,0.00,,---,0.00,VWS V14.01,2013-11-06 23:15:00,
2013-11-06 18:20:00,55.6,52.7,30.24,South,189,5.0,13.0,90,0.00,,---,0.00,VWS V14.01,2013-11-06 23:20:00,
2013-11-06 18:25:00,55.6,52.7,30.23,SW,216,9.0,13.0,90,0.00,,---,0.00,VWS V14.01,2013-11-06 23:25:00,
2013-11-06 18:30:00,55.5,52.9,30.23,SSW,193,11.0,11.0,91,0.00,,---,0.00,VWS V14.01,2013-11-06 23:30:00,
2013-11-06 18:35:00,55.6,53.0,30.23,SW,222,11.0,11.0,91,0.00,,---,0.00,VWS V14.01,2013-11-06 23:35:00,
2013-11-06 18:40:00,55.6,53.0,30.23,South,191,7.0,16.0,91,0.00,,---,0.00,VWS V14.01,2013-11-06 23:40:00,
2013-11-06 18:45:00,55.6,53.0,30.23,SW,223,8.0,11.0,91,0.00,,---,0.00,VWS V14.01,2013-11-06 23:45:00,
2013-11-06 18:50:00,55.7,53.4,30.23,South,178,1.0,11.0,92,0.00,,---,0.00,VWS V14.01,2013-11-06 23:50:00,
2013-11-06 18:55:00,55.6,53.3,30.23,SSW,207,10.0,10.0,92,0.00,,---,0.00,VWS V14.01,2013-11-06 23:55:00,
2013-11-06 19:00:00,55.7,53.1,30.23,SSW,205,7.0,13.0,91,0.00,,---,0.00,VWS V14.01,2013-11-07 00:00:00,
2013-11-06 19:05:00,55.7,53.1,30.23,SSW,208,6.0,8.0,91,0.00,,---,0.00,VWS V14.01,2013-11-07 00:05:00,
2013-11-06 19:10:00,55.8,53.2,30.23,SW,220,7.0,10.0,91,0.00,,---,0.00,VWS V14.01,2013-11-07 00:10:00,
2013-11-06 19:15:00,55.9,53.3,30.22,SW,223,8.0,10.0,91,0.00,,---,0.00,VWS V14.01,2013-11-07 00:15:00,
2013-11-06 19:20:00,55.9,53.6,30.22,SSW,192,4.0,11.0,92,0.00,,---,0.00,VWS V14.01,2013-11-07 00:20:00,
2013-11-06 19:25:00,55.9,53.6,30.22,SSW,192,5.0,16.0,92,0.00,,---,0.00,VWS V14.01,2013-11-07 00:25:00,
2013-11-06 19:30:00,55.9,53.6,30.22,SSW,195,8.0,11.0,92,0.00,,---,0.00,VWS V14.01,2013-11-07 00:30:00,
2013-11-06 19:35:00,55.9,53.6,30.21,SW,229,5.0,11.0,92,0.00,,---,0.00,VWS V14.01,2013-11-07 00:35:00,
2013-11-06 19:40:00,55.9,53.6,30.21,WSW,252,3.0,10.0,92,0.00,,---,0.00,VWS V14.01,2013-11-07 00:40:00,
2013-11-06 19:45:00,55.9,53.9,30.21,SW,215,9.0,9.0,93,0.00,,---,0.00,VWS V14.01,2013-11-07 00:45:00,
2013-11-06 19:50:00,55.9,53.9,30.20,South,175,6.0,11.0,93,0.00,,---,0.00,VWS V14.01,2013-11-07 00:50:00,
2013-11-06 19:55:00,55.8,53.8,30.20,SW,215,9.0,10.0,93,0.00,,---,0.00,VWS V14.01,2013-11-07 00:55:00,
2013-11-06 20:00:00,55.8,54.1,30.19,SSW,193,9.0,11.0,94,0.00,,---,0.00,VWS V14.01,2013-11-07 01:00:00,
2013-11-06 20:05:00,55.8,54.1,30.19,SSW,194,8.0,10.0,94,0.00,,---,0.00,VWS V14.01,2013-11-07 01:05:00,
2013-11-06 20:10:00,55.9,54.2,30.19,SSW,211,7.0,11.0,94,0.00,,---,0.00,VWS V14.01,2013-11-07 01:10:00,
2013-11-06 20:15:00,55.9,54.2,30.19,SSW,198,8.0,14.0,94,0.00,,---,0.00,VWS V14.01,2013-11-07 01:15:00,
2013-11-06 20:20:00,56.0,54.3,30.19,SW,234,1.0,10.0,94,0.00,,---,0.00,VWS V14.01,2013-11-07 01:20:00,
2013-11-06 20:25:00,56.0,54.6,30.18,South,178,2.0,9.0,95,0.00,,---,0.00,VWS V14.01,2013-11-07 01:25:00,
2013-11-06 20:30:00,56.1,54.7,30.18,South,183,7.0,11.0,95,0.00,,---,0.00,VWS V14.01,2013-11-07 01:30:00,
2013-11-06 20:35:00,56.1,54.7,30.18,South,170,4.0,8.0,95,0.00,,---,0.00,VWS V14.01,2013-11-07 01:35:00,
2013-11-06 20:40:00,56.1,54.7,30.18,South,172,3.0,9.0,95,0.00,,---,0.00,VWS V14.01,2013-11-07 01:40:00,
2013-11-06 20:45:00,56.1,54.7,30.17,South,172,3.0,9.0,95,0.00,,---,0.00,VWS V14.01,2013-11-07 01:45:00,
2013-11-06 20:50:00,56.0,54.9,30.17,SSW,193,4.0,10.0,96,0.00,,---,0.00,VWS V14.01,2013-11-07 01:50:00,
2013-11-06 20:55:00,56.1,55.0,30.17,SSW,206,8.0,9.0,96,0.00,,---,0.00,VWS V14.01,2013-11-07 01:55:00,
2013-11-06 21:00:00,56.2,55.1,30.17,South,189,4.0,10.0,96,0.00,,---,0.00,VWS V14.01,2013-11-07 02:00:00,
2013-11-06 21:05:00,56.1,55.0,30.17,SSW,212,5.0,10.0,96,0.00,,---,0.00,VWS V14.01,2013-11-07 02:05:00,
2013-11-06 21:10:00,56.2,55.1,30.17,South,190,8.0,10.0,96,0.00,,---,0.00,VWS V14.01,2013-11-07 02:10:00,
2013-11-06 21:15:00,56.2,55.1,30.17,SW,218,7.0,10.0,96,0.00,,---,0.00,VWS V14.01,2013-11-07 02:15:00,
2013-11-06 21:20:00,56.2,55.1,30.17,SSW,208,5.0,10.0,96,0.00,,---,0.00,VWS V14.01,2013-11-07 02:20:00,
2013-11-06 21:25:00,56.2,54.8,30.16,SSW,205,7.0,10.0,95,0.00,,---,0.00,VWS V14.01,2013-11-07 02:25:00,
2013-11-06 21:30:00,56.2,54.8,30.16,SW,227,10.0,13.0,95,0.00,,---,0.00,VWS V14.01,2013-11-07 02:30:00,
2013-11-06 21:35:00,56.1,54.7,30.16,SSW,213,6.0,10.0,95,0.00,,---,0.00,VWS V14.01,2013-11-07 02:35:00,
2013-11-06 21:40:00,56.3,54.9,30.16,SW,222,6.0,13.0,95,0.00,,---,0.00,VWS V14.01,2013-11-07 02:40:00,
2013-11-06 21:45:00,56.4,55.0,30.16,SSW,210,10.0,14.0,95,0.00,,---,0.00,VWS V14.01,2013-11-07 02:45:00,
2013-11-06 21:50:00,56.4,54.7,30.16,SW,225,8.0,10.0,94,0.00,,---,0.00,VWS V14.01,2013-11-07 02:50:00,
2013-11-06 21:55:00,56.5,54.8,30.16,SSW,208,9.0,13.0,94,0.00,,---,0.00,VWS V14.01,2013-11-07 02:55:00,
2013-11-06 22:00:00,56.7,55.0,30.15,SW,230,10.0,13.0,94,0.00,,---,0.00,VWS V14.01,2013-11-07 03:00:00,
2013-11-06 22:05:00,56.8,54.8,30.15,SW,235,8.0,14.0,93,0.00,,---,0.00,VWS V14.01,2013-11-07 03:05:00,
2013-11-06 22:10:00,56.9,54.6,30.15,SW,235,10.0,16.0,92,0.00,,---,0.00,VWS V14.01,2013-11-07 03:10:00,
2013-11-06 22:15:00,57.0,54.4,30.15,WSW,241,12.0,15.0,91,0.00,,---,0.00,VWS V14.01,2013-11-07 03:15:00,
2013-11-06 22:20:00,57.0,54.1,30.14,SW,214,7.0,18.0,90,0.00,,---,0.00,VWS V14.01,2013-11-07 03:20:00,
2013-11-06 22:25:00,57.1,54.2,30.14,SW,225,7.0,20.0,90,0.00,,---,0.00,VWS V14.01,2013-11-07 03:25:00,
2013-11-06 22:30:00,57.2,54.0,30.14,SW,230,12.0,21.0,89,0.00,,---,0.00,VWS V14.01,2013-11-07 03:30:00,
2013-11-06 22:35:00,57.1,53.9,30.14,SW,225,7.0,19.0,89,0.00,,---,0.00,VWS V14.01,2013-11-07 03:35:00,
2013-11-06 22:40:00,56.9,53.7,30.14,WSW,258,7.0,16.0,89,0.00,,---,0.00,VWS V14.01,2013-11-07 03:40:00,
2013-11-06 22:45:00,56.8,53.9,30.13,SW,214,9.0,15.0,90,0.00,,---,0.00,VWS V14.01,2013-11-07 03:45:00,
2013-11-06 22:50:00,56.7,53.8,30.13,WSW,255,7.0,15.0,90,0.00,,---,0.00,VWS V14.01,2013-11-07 03:50:00,
2013-11-06 22:55:00,56.7,54.1,30.13,SW,235,10.0,15.0,91,0.00,,---,0.00,VWS V14.01,2013-11-07 03:55:00,
2013-11-06 23:00:00,56.7,54.1,30.12,WSW,243,11.0,12.0,91,0.00,,---,0.00,VWS V14.01,2013-11-07 04:00:00,
2013-11-06 23:05:00,56.6,54.3,30.12,WSW,239,10.0,12.0,92,0.00,,---,0.00,VWS V14.01,2013-11-07 04:05:00,
2013-11-06 23:10:00,56.5,54.2,30.12,WSW,241,1.0,10.0,92,0.00,,---,0.00,VWS V14.01,2013-11-07 04:10:00,
2013-11-06 23:15:00,56.4,54.4,30.12,WSW,247,5.0,10.0,93,0.00,,---,0.00,VWS V14.01,2013-11-07 04:15:00,
2013-11-06 23:20:00,56.4,54.4,30.12,WSW,243,8.0,12.0,93,0.00,,---,0.00,VWS V14.01,2013-11-07 04:20:00,
2013-11-06 23:25:00,56.5,54.5,30.12,WSW,240,5.0,12.0,93,0.00,,---,0.00,VWS V14.01,2013-11-07 04:25:00,
2013-11-06 23:30:00,56.6,54.3,30.12,SW,218,13.0,14.0,92,0.00,,---,0.00,VWS V14.01,2013-11-07 04:30:00,
2013-11-06 23:35:00,56.8,54.5,30.11,West,273,9.0,15.0,92,0.00,,---,0.00,VWS V14.01,2013-11-07 04:35:00,
2013-11-06 23:40:00,56.8,54.5,30.11,WSW,253,5.0,14.0,92,0.00,,---,0.00,VWS V14.01,2013-11-07 04:40:00,
2013-11-06 23:45:00,56.7,54.4,30.11,WSW,253,6.0,13.0,92,0.00,,---,0.00,VWS V14.01,2013-11-07 04:45:00,
2013-11-06 23:50:00,56.7,54.4,30.10,WSW,252,4.0,13.0,92,0.00,,---,0.00,VWS V14.01,2013-11-07 04:50:00,
2013-11-06 23:55:00,56.7,54.7,30.10,SW,230,7.0,12.0,93,0.00,,---,0.00,VWS V14.01,2013-11-07 04:55:00,